METEOR 2-6 DEB, 28986

Orbit data source: Space-Track

METEOR 2-6 DEB, 28986 is space debris in LEO originally from a launch on Tue, 09 Sep 1980 UTC launched from the Plesetsk Missile And Space Complex (PKMTR). Debris objects in space refer to the collection of defunct objects orbiting the Earth. Examples of debris include non-operational satellites, rocket bodies, and fragments generated from explosions, collisions, or faulty payload assembly.

Loading next visibility...
Identifier
28986, 1980-073C
Orbit
LEO
Country
Flag of CISCIS
Related business
Manufacturer
Unknown
Mission
Spacecraft
Bus & Motor
Unknown
Mass
Unknown
Launch date (UTC)
1980-09-09 (45 years ago)
Launch vehicle
Unknown
Launch site
Plesetsk Missile And Space Complex (PKMTR)
Object type
Payload
Rocket body
Debris
Shape & HBR
Unknown shape, 0.1 m
Radar Cross Section
Small (<0.1 m²)

Expand to show TLE details & history
Last TLE update: 6 days ago

TLE from 6 days ago
0 METEOR 2-6 DEB
1 28986U 80073C   25294.92221617  .00008490  00000-0  18374-2 0  9999
2 28986  81.2043 156.5301 0023828  16.5405 343.6563 14.57999034617182
Epoch: 2025-10-21T22:07Z
TLE epoch observation values (Epoch: 2025-10-21T22:07:59.477Z)
Latitude
-0.00009°
Longitude
153.92904°
Altitude
686.422 km
Speed
7.522 km/s
True Right ascension
10h 26m 07s
True Declination
0° 00' 00"
Sunlit
Object was in daylight at epoch
Visualization orbit readout
Latitude
Unknown
Longitude
Unknown
Altitude
Unknown
Speed
Unknown
Apparent Right ascension
Unknown
Apparent Declination
Unknown
Sunlit
N/A
Visualization observer readout
Local Sidereal Time
20:07:07
Azimuth
Unknown
Elevation
Unknown
Doppler factor
Unknown
Orbital elements
Apogee altitude
713.613 km
Perigee altitude
679.896 km
Semi-major axis
7,074.892 km
Eccentricity
0.00238
Inclination
81.2043°
RAAN
156.5301°
Arg. of periapsis
16.5405°
True anomaly
343.57924°
Mean anomaly
343.6563°
Eccentric anomaly
343.61779°
Mean motion
3.64723 °/min
Orbital period
98.7 mins
BSTAR
0.0018374
Loading maneuver chart data...
Computing Atmospheric mass density...
Loading historical data...
Loading historical data...
Loading historical data...
Loading historical data...
Loading historical data...
Loading historical data...
Loading historical data...

Documentation

Showing up to 5 results
|